Terug naar catalogus

FENGYUN 1C DEB

ActiefSSO
NORAD 38121·DEBRIS·🇨🇳 China

Gelanceerd May 10, 1999 vanaf Taiyuan Satellite Launch Center

Loading…

Volgende Passages (komende 24 uur)

TLE

VersSource: Space-Track

Epoch: Sep 11, 2026, 06:26 UTC

1 38121U 99025EPS 26254.26828472  .00001011  00000-0  38136-3 0  9995
2 38121  99.1456  60.6302 0204090  68.9600 293.3272 14.22885074877946

Volg FENGYUN 1C DEB in realtime met AllMySat

Download on the App Store